SL-14 DEB, 45301

Orbit data source: Space-Track

SL-14 DEB, 45301 is space debris in LEO originally from a launch on Thu, 15 Aug 1991 UTC launched from the Plesetsk Missile And Space Complex (PKMTR). Debris objects in space refer to the collection of defunct objects orbiting the Earth. Examples of debris include non-operational satellites, rocket bodies, and fragments generated from explosions, collisions, or faulty payload assembly.

Loading next visibility...
Identifier
45301, 1991-056AP
Orbit
LEO
Country
Flag of CISCIS
Related business
Manufacturer
Unknown
Mission
Spacecraft
Bus & Motor
Unknown
Mass
Unknown
Launch date (UTC)
1991-08-15 (34 years ago)
Launch vehicle
Unknown
Launch site
Plesetsk Missile And Space Complex (PKMTR)
Object type
Payload
Rocket body
Debris
Shape & HBR
Unknown
Radar Cross Section
Medium (>0.1 m² and <1 m²)

Expand to show TLE details & history
Last TLE update: 11 hours ago

TLE from 11 hours ago
0 SL-14 DEB
1 45301U 91056AP  25259.25342529  .00003022  00000-0  36150-2 0  9993
2 45301  82.4904 231.8017 0180756  59.9802 301.9142 13.60088048275680
Epoch: 2025-09-16T06:04Z
TLE epoch observation values (Epoch: 2025-09-16T06:04:55.945Z)
Latitude
0.00005°
Longitude
145.12222°
Altitude
969.155 km
Speed
7.401 km/s
True Right ascension
15h 27m 12s
True Declination
0° 00' 00"
Sunlit
Object was in daylight at epoch
Visualization orbit readout
Latitude
Unknown
Longitude
Unknown
Altitude
Unknown
Speed
Unknown
Apparent Right ascension
Unknown
Apparent Declination
Unknown
Sunlit
N/A
Visualization observer readout
Local Sidereal Time
09:53:44
Azimuth
Unknown
Elevation
Unknown
Doppler factor
Unknown
Orbital elements
Apogee altitude
1,166.511 km
Perigee altitude
898.605 km
Semi-major axis
7,410.695 km
Eccentricity
0.01808
Inclination
82.4904°
RAAN
231.8017°
Arg. of periapsis
59.9802°
True anomaly
300.13503°
Mean anomaly
301.9142°
Eccentric anomaly
301.02672°
Mean motion
3.40216 °/min
Orbital period
105.82 mins
BSTAR
0.003615
Loading maneuver chart data...
Computing Atmospheric mass density...
Loading historical data...
Loading historical data...
Loading historical data...
Loading historical data...
Loading historical data...
Loading historical data...
Loading historical data...

Documentation

Showing up to 5 results
|